Location: Bailleul
(50.3375°N, 2.8513°E)
Time: 08:09:04
(UTC+00:00)

Lacrosse 5 rocket - Pass Details

Date: 16 June 2021
Orbit: 459 x 634 km, 57.0° (Epoch: 26 July)

Event Time Altitude Azimuth Distance (km) Brightness Sun altitude
Rises 22:26:38 0° 232° (SW) 2,520 4.5 -14.0°
Reaches altitude 10° 22:28:47 10° 231° (SW) 1,628 3.5 -14.1°
Maximum altitude 22:32:25 77° 146° (SE) 479 0.8 -14.3°
Drops below altitude 10° 22:36:00 10° 59° (ENE) 1,610 3.9 -14.5°
Sets 22:38:08 0° 58° (ENE) 2,490 4.9 -14.6°
